GEO IK

导读 | 星芒AI

GEO IK 是俄罗斯用于地球观测的静止轨道卫星系列,主要用于气象监测和环境研究。该系列卫星能够提供高分辨率的气象图像和数据,支持天气预报和气候研究。GEO IK 卫星运行在约 36,000 公里的地球同步轨道上,确保对特定区域的持续观测。其先进传感器可监测云层、地表温度和大气状况。GEO IK 是俄罗斯气象卫星系统的重要组成部分,与国际气象卫星网络协同工作,提升全球气象数据的准确性与实时性。

基本信息
目录编号:
23411
目录名称:
GEO IK
国际标识:
1994-078A
轨道中心:
EARTH
卫星名称:
GEO IK
卫星全名:
--
卫星状态:
在轨 (已飞行11298 天)
发射日期:
1994-11-29 UTC
国别 :
俄罗斯(独联体) (CIS)
星等 :
--
轨道信息
数据来源 国际轨道数据 AOE轨道数据
星历时间 2025-11-04T00:25:25+0800
10小时前
查看轨道信息
2025-11-02T10:00:00+0800
2天前
查看轨道信息
半长轴 7881.092km 7881.092km
偏心率 0.0029529 0.0029558
轨道倾角 73.611° 73.610°
近地点辐角 314.168° 316.762°
升交点赤经 107.568° 109.712°
平近点角 56.743° 104.676°
近地点 1479.684km 1479.662km
远地点 1526.23km 1526.252km
周期 116.048分钟 116.048分钟
每日圈数 12.408611 12.408612
详细信息
使用方式:
暂无
2D轨道图
3D轨道图
轨道高度分析图
轨道倾角分析图
轨道综合分析图
查看轨道综合分析图